Overview Statistics Trail Chart Weather Telemetry Raw packets
 

This is the latest recevied weather packets stored in our database for station/object R8AHC-W5. If no packets are shown the sender has not sent any weather packets the latest 10 day(s).

<< 6 7 8 9 10 >>
Time Temp. Humidity Pressure Rain* Wind** Luminosity Snow
1777463702 14.44° C 29% 1019 hPa - 5.36 m/s, 248° - -
1777460102 15° C 30% 1019 hPa - 5.36 m/s, 247° - -
1777456502 14.44° C 32% 1019 hPa - 5.81 m/s, 244° - -
1777452902 14.44° C 34% 1019 hPa - 5.81 m/s, 242° - -
1777449302 13.89° C 36% 1020 hPa - 5.36 m/s, 237° - -
1777445702 13.33° C 38% 1020 hPa - 4.47 m/s, 232° - -
1777442103 12.22° C 40% 1020 hPa - 3.58 m/s, 222° - -
1777438502 10.56° C 46% 1020 hPa - 2.68 m/s, 251° - -
1777434902 9.44° C 50% 1021 hPa - 1.79 m/s, 260° - -
1777431301 8.33° C 55% 1021 hPa - 1.34 m/s, 271° - -
1777427702 6.67° C 62% 1021 hPa - 1.34 m/s, 288° - -
1777424102 5.56° C 66% 1021 hPa - 1.79 m/s, 293° - -
1777420502 5.56° C 66% 1020 hPa - 2.24 m/s, 298° - -
1777416901 6.11° C 65% 1020 hPa - 2.24 m/s, 307° - -
1777413302 6.11° C 68% 1020 hPa - 2.24 m/s, 306° - -
1777409702 7.78° C 69% 1020 hPa - 2.68 m/s, 289° - -
1777406102 8.33° C 72% 1020 hPa - 2.68 m/s, 264° - -
1777402502 8.89° C 73% 1019 hPa - 3.13 m/s, 235° - -
1777398902 8.89° C 75% 1019 hPa - 4.02 m/s, 214° - -
1777395302 9.44° C 74% 1019 hPa - 4.47 m/s, 208° - -
1777391701 9.44° C 75% 1019 hPa - 4.47 m/s, 200° - -
1777388102 9.44° C 77% 1019 hPa - 4.02 m/s, 207° - -
1777384502 9.44° C 76% 1019 hPa - 4.02 m/s, 226° - -
1777380901 9.44° C 76% 1019 hPa - 4.02 m/s, 234° - -
1777377302 10.56° C 75% 1018 hPa - 4.02 m/s, 244° - -

* Rain since midnight (hover to see other rain measurements)
** Current wind speed in m/s (hover to see current wind gust speed)